ISIS 1

Last updated on Wed Sep 17 2025 00:02:14 GMT+0000 (Coordinated Universal Time)

1 03669U 69009A 25259.52912828 .00000234 00000+0 15039-3 0 9997 2 03669 88.4601 174.3031 1708478 80.7640 298.1798 11.30296440328852
UTC large
Height (km)
Speed (km/s)
/
Latitude / Longitude
Inclination (degrees)
Orbital Period (minutes)
Azimuth
Elevation
Range (km)
Doppler Factor

Next 0 passes for location: London (51.5072 / 0.1276)

Sorry there are no passes over London.